SCP
1 1 1 1 1 1 1 1 1 1 1 1 1 1 0 0 0 0 1 1 1 1 1 1 1 2 2 2 2 2 2 1 1 1 1 1 1 1 1 1 1 1 1
2 2 2 2 1 1 1 1 1 1 1 1 1 1 1 1 1 1 1 1 1 1 1 1 1 2 2 2 2 2 2 2 2 1 1 1 1 1 1 1 1 1 1
2 3 3 2 2 2 2 2 2 1 2 1 1 1 1 1 1 1 1 1 1 1 1 1 1 1 2 2 2 2 2 2 2 2 2 2 1 1 1 1 1 1 1
3 3 3 3 3 3 3 3 2 2 2 2 1 1 1 1 1 1 1 1 2 2 2 2 1 1 1 1 2 2 2 3 3 3 2 2 2 2 2 2 1 1 1
3 3 3 3 3 4 3 3 2 2 2 2 2 1 1 1 1 1 1 1 2 2 2 2 2 2 1 1 1 2 2 3 3 3 3 2 2 2 2 2 2 2 2
3 3 2 3 3 3 3 3 2 2 2 2 2 2 1 1 1 1 1 2 2 2 2 2 3 2 2 2 1 1 2 2 3 3 3 2 2 2 2 2 2 2 2
2 2 2 3 3 4 3 3 3 3 2 2 2 2 1 1 1 1 2 2 2 2 2 2 2 2 2 2 2 1 2 2 3 3 3 3 2 2 2 2 2 2 2
3 3 3 3 3 4 5 5 4 3 2 2 2 2 1 1 1 1 2 2 2 2 1 1 2 2 2 2 2 2 2 2 2 3 3 3 2 2 2 2 2 2 1
3 3 3 3 3 4 5 6 5 3 2 1 1 1 1 1 1 1 1 1 1 1 1 1 2 2 2 2 2 2 1 1 1 2 2 2 2 2 2 2 2 2 1
4 4 3 3 4 4 4 5 4 3 2 1 1 1 1 1 1 1 1 1 1 1 1 1 2 2 2 2 2 1 1 1 1 1 1 2 2 2 2 2 2 2 2
4 4 3 4 4 4 4 4 3 2 2 1 1 1 1 1 1 1 1 1 1 1 1 1 2 2 2 2 2 1 1 1 1 1 1 1 1 1 1 2 2 2 2
2 3 3 3 4 4 4 4 3 3 2 2 1 1 1 1 1 1 1 1 1 1 1 1 1 1 1 2 1 1 1 0 0 0 0 0 1 1 1 1 1 2 2
2 2 2 2 2 3 3 4 3 3 3 2 1 1 1 1 1 1 1 1 1 1 1 1 1 1 1 1 1 1 1 0 0 0 0 0 0 0 1 1 1 1 1
2 2 2 1 1 2 2 2 3 3 3 2 1 1 1 1 1 1 1 1 1 1 1 1 1 1 1 1 1 1 1 1 1 0 0 0 0 0 0 0 1 1 1
2 2 1 1 1 1 1 2 2 3 3 3 2 2 1 1 1 1 1 1 1 1 1 1 1 1 1 1 1 1 1 1 1 0 0 0 0 0 0 0 0 0 0
2 2 2 1 1 1 2 2 2 2 3 3 3 2 2 1 1 1 1 1 1 1 1 1 1 1 1 1 1 1 2 2 1 0 0 0 0 0 0 0 0 0 0
2 2 2 2 2 2 2 2 2 2 2 3 3 3 2 2 2 1 1 1 2 2 1 1 1 1 1 2 2 2 2 2 1 1 0 0 0 0 0 0 0 0 0
2 2 3 3 3 2 2 2 2 2 2 2 2 3 3 3 2 2 2 2 2 2 2 1 1 2 2 2 2 2 2 2 1 1 0 0 0 0 0 0 0 0 0
2 3 3 4 4 4 3 2 2 2 2 2 2 2 2 3 3 3 3 3 3 2 2 2 2 2 2 2 2 2 2 2 2 1 0 0 0 0 0 0 0 0 0
3 3 4 4 5 5 4 3 3 2 2 1 1 2 2 2 3 3 3 3 3 3 2 2 2 2 2 2 2 2 2 2 2 1 1 1 1 0 0 0 0 0 0
4 4 4 4 5 5 4 4 3 3 2 2 2 2 2 3 2 2 2 2 3 3 2 2 2 1 1 1 1 2 2 2 2 2 2 2 1 1 1 1 0 0 0
6 5 4 4 4 4 4 4 4 3 3 3 4 4 4 4 3 2 2 1 2 2 2 2 2 1 1 1 1 2 3 3 2 2 2 2 2 2 2 1 1 0 0
7 6 5 4 4 3 3 2 3 4 5 5 5 6 6 5 5 4 3 2 1 1 1 2 2 2 2 2 2 3 3 3 3 2 2 2 2 2 2 1 1 0 0
7 6 5 4 4 4 3 2 2 3 5 5 5 5 6 6 5 4 3 3 2 2 2 2 2 2 2 2 2 2 3 2 2 2 2 2 2 2 2 2 1 0 0
7 6 4 4 4 4 3 1 1 3 4 4 4 4 5 5 4 3 3 3 3 3 2 1 2 2 1 1 1 2 2 2 1 1 2 2 2 2 2 2 1 0 0
7 6 4 3 3 3 2 1 1 2 3 3 3 3 3 3 2 1 2 2 2 2 2 1 1 1 1 1 1 1 1 1 1 1 2 2 2 2 2 1 1 0 0
Wind_Speed
2 2 2 1 1 2 2 2 2 2 2 3 2 2 2 2 1 1 3 6 4 2 2 3 3 4 4 5 5 5 5 5 6 6 6 7 8 8 8 8 7 7 7
2 2 2 1 1 1 1 1 2 2 2 2 2 2 1 2 2 1 1 4 5 3 2 2 3 4 4 4 5 5 5 5 5 6 6 6 7 7 8 8 8 7 7
2 1 2 2 1 2 2 1 2 2 2 2 2 2 1 1 1 1 0 0 3 5 3 2 2 2 3 4 4 5 5 6 6 6 6 6 6 7 7 7 8 8 8
2 2 1 2 2 2 2 2 2 2 2 2 2 1 1 1 1 1 1 0 0 1 4 4 2 2 2 3 4 5 5 6 6 6 5 6 6 6 6 7 7 8 8
2 2 1 1 2 1 1 1 2 2 2 2 2 2 1 1 1 1 0 1 1 0 0 5 5 3 3 2 3 4 4 5 5 5 5 5 5 6 6 6 6 7 7
2 2 2 2 2 1 1 1 2 1 1 1 1 1 1 1 0 0 1 1 1 1 1 1 2 4 5 3 2 3 3 4 4 4 4 5 5 5 6 6 6 6 7
2 2 1 2 1 1 1 2 2 3 2 1 1 2 2 1 0 0 0 0 1 1 1 1 0 1 3 6 4 3 3 3 3 3 3 3 4 5 6 6 6 6 7
3 2 2 2 2 2 2 2 2 1 2 1 1 1 2 3 2 1 1 1 0 1 1 2 1 1 0 1 5 5 3 2 3 2 2 2 3 4 5 6 6 6 6
4 3 2 2 2 2 2 2 2 2 1 1 1 2 1 0 1 3 1 1 0 0 1 1 2 2 1 1 2 5 4 2 2 2 1 2 3 3 3 4 5 6 6
4 3 3 3 2 2 2 3 2 2 2 2 1 1 2 2 2 1 2 2 2 1 1 1 1 2 2 1 2 3 3 2 2 1 1 1 2 2 3 4 5 6 6
4 4 4 3 3 2 2 2 2 2 2 2 1 1 1 2 3 3 1 1 1 1 1 1 1 1 1 1 1 3 3 2 1 1 1 2 2 2 3 3 3 4 5
3 4 3 3 3 2 3 3 3 3 2 2 2 2 2 2 2 2 2 2 1 1 1 1 1 1 1 1 1 3 2 2 1 1 2 2 2 2 2 3 3 4 4
3 4 4 3 3 2 3 3 3 3 3 3 3 2 2 2 2 2 3 2 2 2 2 2 1 1 1 1 1 3 3 3 2 2 2 2 2 2 3 3 3 3 4
3 3 4 4 3 3 3 3 3 3 3 3 3 3 3 2 2 3 3 3 3 3 2 2 1 1 1 1 1 3 2 3 3 2 2 2 2 2 2 2 2 2 2
3 4 4 4 3 3 3 4 3 3 3 3 3 3 3 2 3 3 3 4 4 3 3 2 2 1 1 1 1 2 2 3 4 3 3 2 2 2 1 2 2 2 2
3 4 4 4 4 4 4 4 3 3 3 2 2 2 2 2 2 2 3 4 4 4 3 1 1 1 1 2 2 2 2 4 5 5 5 4 3 2 2 2 2 1 2
4 5 4 4 4 3 3 3 4 3 3 3 3 3 3 2 2 2 2 3 3 3 4 3 2 1 2 3 2 3 3 4 4 7 6 5 5 4 3 3 3 2 2
4 4 4 4 4 4 4 4 4 4 4 4 3 3 3 2 2 3 2 3 3 3 4 4 3 3 3 3 3 5 4 3 4 6 7 6 6 5 5 4 4 4 4
4 4 4 4 4 4 4 5 4 4 5 4 4 4 3 2 3 2 3 3 3 3 3 4 4 3 3 3 3 4 4 4 5 5 8 8 7 7 6 6 5 5 4
4 4 4 4 4 4 4 4 4 4 5 4 4 4 4 4 3 3 3 4 3 4 4 4 4 3 3 3 3 4 4 4 4 4 4 5 7 9 9 8 7 6 6
4 4 4 4 4 4 3 4 4 5 5 5 4 4 4 3 3 3 4 3 4 4 4 4 4 3 3 3 4 4 4 4 4 4 4 4 4 5 6 8 9 8 7
4 4 4 4 4 2 1 2 5 4 5 4 4 4 4 5 4 4 5 5 5 5 5 5 4 4 4 5 4 4 4 4 4 2 4 4 4 4 4 4 5 7 7
4 4 4 4 3 1 1 2 4 5 5 4 4 4 4 3 4 5 5 7 6 6 7 7 6 6 5 4 5 6 5 5 5 3 4 5 4 4 4 2 7 8 8
3 3 3 3 3 2 3 3 5 7 5 4 4 4 4 3 3 4 4 4 5 5 6 6 6 6 5 4 5 6 6 6 6 5 5 5 4 4 4 3 6 8 9
2 3 3 3 3 3 3 4 5 5 4 4 4 4 4 4 1 3 5 5 5 4 4 4 4 4 4 5 5 5 5 5 5 4 3 4 4 4 4 4 4 8 9
3 3 2 3 3 3 3 4 6 5 4 4 4 4 3 3 1 3 5 5 6 5 4 3 4 5 5 5 7 7 6 6 5 4 3 4 4 4 4 3 3 4 5
Wind_Direction
127 123 109 93 128 121 141 143 126 126 144 151 150 138 123 93 81 86 111 120 128 145 176 195 190 188 189 191 196 192 185 182 182 186 185 188 189 189 191 194 193 192 191
113 133 137 130 110 97 87 113 118 123 137 130 131 120 114 111 102 109 125 136 143 144 165 192 191 191 191 191 190 189 186 185 186 186 190 192 193 192 192 194 194 196 197
128 158 149 160 134 127 124 127 126 134 141 134 125 120 115 100 107 110 130 151 147 152 151 169 179 192 195 190 180 181 180 181 187 186 185 187 190 189 192 194 198 203 202
169 193 161 152 142 161 148 139 153 142 132 139 132 122 107 108 113 130 176 145 72 124 147 142 147 157 177 174 172 170 173 178 183 185 185 189 192 187 188 193 200 205 203
181 195 150 120 174 175 159 165 133 147 138 132 138 134 130 115 123 166 147 77 60 15 97 132 143 129 131 142 152 169 175 176 178 183 189 193 193 193 192 188 194 195 196
187 204 175 165 200 174 148 134 133 141 141 148 157 109 102 101 220 136 203 127 135 188 203 125 163 147 142 137 128 159 164 170 177 186 193 191 189 189 192 192 196 195 196
180 199 196 157 214 168 159 161 160 151 145 144 168 149 151 160 158 239 219 227 169 173 171 165 211 102 143 150 143 133 147 158 160 177 192 194 190 190 191 194 198 201 205
183 194 188 186 186 166 165 164 172 168 136 167 262 235 187 161 155 152 160 168 183 178 164 161 134 136 250 159 124 143 144 149 154 164 185 195 194 193 197 199 200 203 204
181 194 188 197 193 203 174 180 184 197 191 178 281 300 294 13 125 138 135 135 164 166 190 137 165 154 175 175 142 138 143 150 161 171 198 209 208 199 200 205 206 208 209
187 184 188 186 199 206 181 206 183 214 234 217 185 262 321 336 293 180 162 153 162 200 262 259 196 157 183 171 120 99 123 138 164 186 209 210 216 212 216 213 213 215 213
184 184 184 187 193 201 196 203 181 227 239 254 239 208 197 216 254 261 230 197 183 181 198 226 224 198 181 185 182 115 128 150 178 209 225 238 227 225 224 221 221 216 212
176 174 178 188 204 202 199 205 210 217 250 264 266 246 231 232 227 238 231 241 242 202 211 248 240 222 202 185 148 110 132 170 196 221 236 242 235 239 241 231 225 225 219
177 174 186 191 203 207 211 214 214 232 231 235 252 256 252 254 258 251 242 251 263 250 222 218 215 221 216 191 155 143 164 183 200 218 235 246 241 249 251 245 235 232 227
187 171 184 192 203 208 211 210 222 221 223 233 247 260 257 250 246 248 252 254 258 255 234 224 220 213 222 224 98 205 189 169 188 205 217 230 238 244 245 246 239 234 237
189 178 184 189 197 206 214 212 218 228 224 234 236 227 246 238 234 242 249 253 262 266 263 214 227 188 237 211 201 243 236 163 190 201 207 215 223 224 228 233 225 221 231
190 184 186 189 195 199 205 211 208 208 222 233 253 265 263 258 247 244 249 254 258 264 274 276 271 264 315 264 199 256 249 187 197 196 200 203 207 205 210 209 210 230 244
188 192 190 193 198 198 198 206 218 207 219 229 238 234 246 269 268 265 253 253 257 259 261 267 265 241 250 263 265 265 249 239 204 185 196 205 209 207 211 214 216 226 240
197 195 195 196 200 198 201 211 218 215 221 228 235 236 239 229 237 266 272 270 268 263 252 263 265 251 240 242 246 255 254 248 244 177 191 204 204 204 209 214 219 225 232
196 198 199 202 205 205 205 211 216 222 227 230 234 235 234 228 236 247 259 263 261 254 244 251 255 252 248 242 250 250 247 251 251 195 193 196 201 206 212 215 217 221 224
191 197 205 212 212 213 212 213 215 228 232 231 234 237 235 231 233 240 239 248 260 264 248 248 248 246 247 245 254 257 254 240 251 245 232 212 203 205 211 213 214 216 218
195 200 207 213 218 217 219 228 223 226 233 233 234 237 235 245 275 269 268 258 253 255 254 249 251 252 249 252 254 260 267 262 251 249 247 236 221 224 212 209 210 211 214
197 204 213 215 224 235 122 272 267 243 236 235 236 236 229 219 222 236 267 279 278 261 264 264 256 258 259 260 264 264 267 266 262 245 253 254 248 250 241 229 190 194 207
201 210 214 218 223 214 165 223 259 259 250 248 246 246 252 234 228 237 232 233 248 256 262 270 271 272 271 267 265 262 259 267 275 274 265 261 254 253 251 212 171 192 205
201 207 216 219 221 203 180 214 246 243 246 242 242 243 251 255 255 269 258 252 249 244 246 249 264 272 279 279 264 263 266 258 256 246 244 260 258 263 259 224 183 196 204
204 213 223 227 227 208 187 211 236 236 233 238 240 241 247 246 266 281 259 260 261 254 235 241 274 279 284 275 268 262 255 255 260 253 231 252 262 265 258 247 198 193 204
203 214 215 231 234 228 184 209 233 237 232 235 229 224 220 246 232 256 258 261 261 263 263 240 231 239 241 235 229 242 258 261 266 264 239 249 257 262 256 239 225 205 209